This demonstration page uses our WeatherBlox Daily Observations layout. Learn more.

36.17497, -115.13722

Hourly Observations for June 7, 2020

Temp ( °F °C ) Dew Point ( °F °C ) Humidity (%) Winds ( mph kmh ) Pressure ( in mb ) Visibility ( mi km ) Precip ( " mm )
12:53 am 00:53 Clear 70 21.1 36 2.2 29 29 E 9 15 29.65 1004 10 16.0934 0 0
1:53 am 01:53 Clear 70 21.1 36 2.2 29 29 NW 6 9 29.65 1004 10 16.0934 0 0
2:53 am 02:53 Clear 69 20.6 37 2.8 31 31 W 7 11 29.64 1004 10 16.0934 0 0
3:53 am 03:53 Clear 68 20 36 2.2 31 31 Calm 29.64 1004 10 16.0934 0 0
4:53 am 04:53 Clear 67 19.4 37 2.8 33 33 SW 6 9 29.65 1004 10 16.0934 0 0
5:53 am 05:53 Sunny 65 18.3 37 2.8 36 36 NNW 5 7 29.67 1005 10 16.0934 0 0
6:53 am 06:53 Sunny 68 20 36 2.2 31 31 N 6 9 29.69 1005 10 16.0934 0 0
7:53 am 07:53 Sunny 69 20.6 36 2.2 30 30 S 6 9 29.71 1006 10 16.0934 0 0
8:53 am 08:53 Sunny 74 23.3 34 1.1 23 23 S 3 6 29.71 1006 10 16.0934 0 0
9:53 am 09:53 Sunny 77 25 33 0.6 20 20 Calm 29.71 1006 10 16.0934 0 0
10:53 am 10:53 Sunny 81 27.2 33 0.6 18 18 VRB 5 7 29.71 1006 10 16.0934 0 0
11:53 am 11:53 Sunny 82 27.8 30 -1.1 15 15 S 8 13 29.69 1005 10 16.0934 0 0
12:53 pm 12:53 Sunny 85 29.4 28 -2.2 13 13 NW 5 7 29.67 1005 10 16.0934 0 0
1:53 pm 13:53 Sunny 86 30 25 -3.9 11 11 SSW 21 33 29.65 1004 10 16.0934 0 0
2:53 pm 14:53 Sunny 86 30 22 -5.6 9 9 SSW 28 44 29.63 1003 10 16.0934 0 0
3:53 pm 15:53 Sunny 87 30.6 20 -6.7 8 8 SW 21 33 29.62 1003 10 16.0934 0 0
4:53 pm 16:53 Sunny 86 30 13 -10.6 6 6 SW 23 37 29.61 1003 10 16.0934 0 0
5:53 pm 17:53 Sunny 85 29.4 13 -10.6 7 7 SSW 26 43 29.61 1003 10 16.0934 0 0
6:53 pm 18:53 Sunny 83 28.3 13 -10.6 7 7 WSW 21 33 29.62 1003 10 16.0934 0 0
7:53 pm 19:53 Sunny 80 26.7 14 -10 8 8 WSW 22 35 29.63 1004 10 16.0934 0 0
8:53 pm 20:53 Clear 78 25.6 16 -8.9 9 9 WSW 25 41 29.64 1004 10 16.0934 0 0
9:53 pm 21:53 Clear 77 25 7 -13.9 7 7 WNW 26 43 29.7 1006 10 16.0934 0 0
10:53 pm 22:53 Clear 73 22.8 11 -11.7 9 9 NW 25 41 29.76 1008 10 16.0934 0 0
11:53 pm 23:53 Clear 69 20.6 14 -10 12 12 NW 31 50 29.8 1009 10 16.0934 0 0

Powered by AerisWeather